Date String (YYYY-MM-DD hh:mm:ss) UTC,Instrument flags,absolute air pressure of the measurement (hPa),sample flow rate (lpm),inlet stack bypass flow (lpm),air temperature of the measurement (°C),ambient temperature measured by the external sensor (°C),aerosol sample conditioner tube jacket temperature (°C),OPC LED temperature (°C),internal box temperature (°C),relative humidity of the measurement (%),span deviation,mass concentration of particles derived from Lorenz-Mie calculation of OPC scattering (μg/m³),mass concentration of particles derived from Lorenz-Mie calculation of OPC scattering (μg/m³),mass concentration of particles derived from Lorenz-Mie calculation of OPC scattering (μg/m³)
DateTimeUTC,F1_M11,P_M11,Q1_M11,Q2_M11,T1_M11,T2_M11,T3_M11,T4_M11,T5_M11,U1_M11,ZSPAN_M11,X2_M11,X0_M11,X1_M11
2023-09-24 09:00:00,SystemResetWarning,0831.6,5.00,000.00,028.8,027.2,000.0,037.2,030.2,10.8,0000.0,0003.66,0010.61,0003.13
2023-09-24 09:01:00,SystemResetWarning,0831.5,5.00,000.00,028.8,027.2,000.0,037.2,030.2,10.7,0000.0,0003.66,0011.02,0003.13
2023-09-24 09:02:00,SystemResetWarning,0831.5,5.01,000.00,028.7,027.2,000.0,037.2,030.2,10.6,0000.0,0003.63,0010.57,0003.13
2023-09-24 09:03:00,SystemResetWarning,0831.5,5.01,000.00,028.7,027.2,000.0,037.2,030.2,10.6,0000.0,0003.60,0009.50,0003.12
2023-09-24 09:04:00,SystemResetWarning,0831.5,5.00,000.00,028.8,027.2,000.0,037.2,030.2,10.6,0000.0,0003.59,0008.52,0003.12
2023-09-24 09:05:00,SystemResetWarning,0831.6,4.99,000.00,028.8,027.2,000.0,037.2,030.2,10.5,0000.0,0003.61,0008.78,0003.11
2023-09-24 09:06:00,SystemResetWarning,0831.6,4.99,000.00,028.7,027.3,000.0,037.2,030.2,10.5,0000.0,0003.61,0008.26,0003.11
2023-09-24 09:07:00,SystemResetWarning,0831.6,5.00,000.00,028.7,027.3,000.0,037.2,030.2,10.6,0000.0,0003.61,0007.95,0003.11
2023-09-24 09:08:00,SystemResetWarning,0831.6,5.01,000.00,028.7,027.2,000.0,037.2,030.2,10.6,0000.0,0003.60,0007.89,0003.11
2023-09-24 09:09:00,SystemResetWarning,0831.6,5.00,000.00,028.7,027.2,000.0,037.2,030.2,10.6,0000.0,0003.54,0007.83,0003.09
2023-09-24 09:10:00,SystemResetWarning,0831.5,5.01,000.00,028.7,027.2,000.0,037.2,030.2,10.6,0000.0,0003.53,0007.76,0003.09
2023-09-24 09:11:00,SystemResetWarning,0831.5,5.00,000.00,028.7,027.2,000.0,037.2,030.2,10.3,0000.0,0003.50,0007.73,0003.08
2023-09-24 09:12:00,SystemResetWarning,0831.5,5.00,000.00,028.7,027.2,000.0,037.2,030.2,10.3,0000.0,0003.50,0007.25,0003.07
2023-09-24 09:13:00,SystemResetWarning,0831.5,4.99,000.00,028.7,027.2,000.0,037.2,030.2,10.4,0000.0,0003.50,0007.28,0003.05
2023-09-24 09:14:00,SystemResetWarning,0831.6,5.00,000.00,028.7,027.2,000.0,037.2,030.2,10.3,0000.0,0003.48,0007.35,0003.04
2023-09-24 09:15:00,SystemResetWarning,0831.6,5.00,000.00,028.7,027.2,000.0,037.2,030.2,10.3,0000.0,0003.49,0007.33,0003.06
2023-09-24 09:16:00,SystemResetWarning,0831.6,5.00,000.00,028.7,027.2,000.0,037.2,030.2,10.1,0000.0,0003.50,0006.96,0003.06
2023-09-24 09:17:00,SystemResetWarning,0831.6,4.99,000.00,028.7,027.2,000.0,037.2,030.2,10.0,0000.0,0003.51,0006.44,0003.08
2023-09-24 09:18:00,SystemResetWarning,0831.6,5.00,000.00,028.7,027.2,000.0,037.2,030.2,10.0,0000.0,0003.51,0006.49,0003.07
2023-09-24 09:19:00,SystemResetWarning,0831.6,5.01,000.00,028.7,027.2,000.0,037.2,030.1,9.9,0000.0,0003.52,0006.73,0003.05
2023-09-24 09:20:00,SystemResetWarning,0831.6,5.01,000.00,028.7,027.2,000.0,037.2,030.2,9.8,0000.0,0003.52,0006.55,0003.07
2023-09-24 09:21:00,SystemResetWarning,0831.6,5.00,000.00,028.7,027.2,000.0,037.2,030.2,9.8,0000.0,0003.53,0006.70,0003.07
2023-09-24 09:22:00,SystemResetWarning,0831.6,5.00,000.00,028.7,027.2,000.0,037.2,030.1,9.6,0000.0,0003.53,0007.18,0003.08
2023-09-24 09:23:00,SystemResetWarning,0831.6,5.00,000.00,028.7,027.2,000.0,037.2,030.1,9.6,0000.0,0003.54,0007.68,0003.09
2023-09-24 09:24:00,SystemResetWarning,0831.6,4.99,000.00,028.7,027.2,000.0,037.2,030.2,9.8,0000.0,0003.52,0007.92,0003.08
2023-09-24 09:25:00,SystemResetWarning,0831.6,5.00,000.00,028.7,027.2,000.0,037.2,030.2,9.8,0000.0,0003.51,0008.88,0003.07
2023-09-24 09:26:00,SystemResetWarning,0831.6,5.00,000.00,028.7,027.2,000.0,037.2,030.1,9.9,0000.0,0003.52,0009.25,0003.05
2023-09-24 09:27:00,SystemResetWarning,0831.6,5.00,000.00,028.7,027.2,000.0,037.2,030.1,9.9,0000.0,0003.53,0009.78,0003.02
2023-09-24 09:28:00,SystemResetWarning,0831.6,5.00,000.00,028.7,027.1,000.0,037.1,030.2,9.9,0000.0,0003.51,0010.31,0003.00
2023-09-24 09:29:00,SystemResetWarning,0831.7,5.00,000.00,028.7,027.1,000.0,037.1,030.1,9.9,0000.0,0003.52,0010.88,0003.00
2023-09-24 09:30:00,SystemResetWarning,0831.7,5.01,000.00,028.7,027.1,000.0,037.1,030.1,9.9,0000.0,0003.51,0010.75,0003.00
2023-09-24 09:31:00,SystemResetWarning,0831.7,5.01,000.00,028.7,027.1,000.0,037.1,030.1,9.8,0000.0,0003.53,0010.91,0002.99
2023-09-24 09:32:00,SystemResetWarning,0831.7,4.99,000.00,028.7,027.2,000.0,037.1,030.2,9.7,0000.0,0003.51,0011.10,0002.98
2023-09-24 09:33:00,SystemResetWarning,0831.7,4.99,000.00,028.7,027.2,000.0,037.1,030.2,9.8,0000.0,0003.55,0011.31,0002.98
2023-09-24 09:34:00,SystemResetWarning,0831.7,5.01,000.00,028.7,027.2,000.0,037.1,030.2,9.8,0000.0,0003.60,0010.99,0002.99
2023-09-24 09:35:00,SystemResetWarning,0831.7,5.01,000.00,028.7,027.2,000.0,037.1,030.2,9.9,0000.0,0003.62,0011.03,0003.00
2023-09-24 09:36:00,SystemResetWarning,0831.7,4.99,000.00,028.7,027.2,000.0,037.1,030.2,9.9,0000.0,0003.64,0009.81,0003.00
2023-09-24 09:37:00,SystemResetWarning,0831.8,4.99,000.00,028.7,027.2,000.0,037.1,030.2,9.8,0000.0,0003.60,0009.38,0003.00
2023-09-24 09:38:00,SystemResetWarning,0831.7,5.01,000.00,028.7,027.2,000.0,037.1,030.2,9.9,0000.0,0003.56,0009.42,0003.02
2023-09-24 09:39:00,SystemResetWarning,0831.7,5.00,000.00,028.7,027.2,000.0,037.1,030.2,9.9,0000.0,0003.56,0009.05,0003.02
2023-09-24 09:40:00,SystemResetWarning,0831.8,5.00,000.00,028.7,027.2,000.0,037.1,030.3,9.9,0000.0,0003.54,0008.26,0003.03
2023-09-24 09:41:00,SystemResetWarning,0831.9,5.01,000.00,028.7,027.2,000.0,037.1,030.3,9.9,0000.0,0003.54,0008.30,0003.03
2023-09-24 09:42:00,SystemResetWarning,0831.8,5.00,000.00,028.7,027.2,000.0,037.1,030.3,9.9,0000.0,0003.53,0008.10,0003.05
2023-09-24 09:43:00,SystemResetWarning,0831.7,5.01,000.00,028.7,027.2,000.0,037.1,030.3,9.8,0001.1,0003.53,0008.17,0003.07
2023-09-24 09:44:00,SystemResetWarning,0831.7,5.00,000.00,028.7,027.3,000.0,037.1,030.3,9.9,0000.0,0003.50,0008.66,0003.07
2023-09-24 09:45:00,SystemResetWarning,0831.7,4.99,000.00,028.7,027.3,000.0,037.1,030.3,10.1,0000.0,0003.46,0008.85,0003.08
2023-09-24 09:46:00,SystemResetWarning,0831.7,4.99,000.00,028.7,027.3,000.0,037.1,030.3,10.2,0000.0,0003.45,0008.80,0003.09
2023-09-24 09:47:00,SystemResetWarning,0831.7,5.00,000.00,028.7,027.3,000.0,037.1,030.3,10.3,0000.0,0003.44,0008.71,0003.10
2023-09-24 09:48:00,SystemResetWarning,0831.7,5.01,000.00,028.8,027.3,000.0,037.1,030.3,10.2,0000.0,0003.48,0008.96,0003.12
2023-09-24 09:49:00,SystemResetWarning,0831.7,5.01,000.00,028.8,027.3,000.0,037.1,030.3,10.1,0000.0,0003.54,0008.61,0003.13
2023-09-24 09:50:00,SystemResetWarning,0831.7,5.00,000.00,028.8,027.3,000.0,037.1,030.3,10.2,0000.0,0003.53,0008.97,0003.13
2023-09-24 09:51:00,SystemResetWarning,0831.7,5.00,000.00,028.8,027.3,000.0,037.1,030.3,10.2,0000.0,0003.56,0009.07,0003.14
2023-09-24 09:52:00,SystemResetWarning,0831.6,4.99,000.00,028.8,027.3,000.0,037.1,030.3,10.1,0000.0,0003.59,0009.15,0003.14
2023-09-24 09:53:00,SystemResetWarning,0831.6,4.99,000.00,028.8,027.3,000.0,037.1,030.3,10.0,0000.0,0003.60,0009.15,0003.14
2023-09-24 09:54:00,SystemResetWarning,0831.6,5.00,000.00,028.7,027.3,000.0,037.2,030.2,10.0,0000.0,0003.60,0009.05,0003.13
2023-09-24 09:55:00,SystemResetWarning,0831.6,5.00,000.00,028.7,027.3,000.0,037.2,030.2,10.0,0000.0,0003.61,0008.03,0003.14
2023-09-24 09:56:00,SystemResetWarning,0831.6,5.00,000.00,028.7,027.2,000.0,037.2,030.2,10.0,0000.0,0003.62,0007.71,0003.14
2023-09-24 09:57:00,SystemResetWarning,0831.6,5.00,000.00,028.7,027.2,000.0,037.2,030.2,10.0,0001.1,0003.64,0007.75,0003.13
2023-09-24 09:58:00,SystemResetWarning,0831.6,5.00,000.00,028.7,027.2,000.0,037.1,030.2,10.0,0000.2,0003.65,0007.78,0003.14
2023-09-24 09:59:00,SystemResetWarning,0831.6,5.01,000.00,028.7,027.2,000.0,037.1,030.3,10.0,0000.0,0003.65,0007.63,0003.14
